K5WXL Weather Reports


time (UTC)temp
F
wind
direction
speed
knots
gust
knots
rain 1hr
in
rain 24hr
in
rain mn
in
humidity
%
barometer
mb
20260506124511 49 22 11.3 19.1 0.00 0.00 0.00 73 1015.3
20260506123020 49 44 9.6 15.6 0.00 0.00 0.00 73 1015.2
20260506121524 49 58 13.0 19.1 0.00 0.00 0.00 72 1014.9
20260506120048 49 20 9.6 19.1 0.00 0.00 0.00 72 1015.1
20260506114526 49 28 11.3 15.6 0.00 0.00 0.00 72 1014.8
20260506113016 49 46 13.0 17.4 0.00 0.00 0.00 71 1014.5
20260506111519 49 32 8.7 17.4 0.00 0.00 0.00 71 1014.2
20260506110025 49 9 13.9 18.2 0.00 0.00 0.00 70 1014.4
20260506104536 49 27 11.3 19.1 0.00 0.00 0.00 69 1014.4
20260506103038 50 345 10.4 14.8 0.00 0.00 0.00 69 1014.7
20260506101516 50 28 13.9 20.9 0.00 0.00 0.00 68 1014.1
20260506100019 50 6 8.7 15.6 0.00 0.00 0.00 69 1014.1
20260506094525 50 34 13.0 18.2 0.00 0.00 0.00 68 1013.8
20260506093028 50 33 8.7 13.0 0.00 0.00 0.00 70 1014.3
20260506091528 50 32 10.4 13.9 0.00 0.00 0.00 70 1014.0
20260506090019 50 30 7.8 13.9 0.00 0.00 0.00 72 1014.0
20260506084549 50 33 7.0 15.6 0.00 0.00 0.00 73 1013.8
20260506083024 50 39 7.0 12.2 0.00 0.00 0.00 74 1013.6
20260506081536 49 25 9.6 13.9 0.00 0.00 0.00 75 1013.3
20260506073023 49 23 8.7 14.8 0.00 0.00 0.00 79 1012.4
20260506071527 49 56 9.6 16.5 0.00 0.00 0.00 80 1012.1
20260506061508 50 23 7.0 16.5 0.00 0.00 0.00 81 1012.6
20260506044518 50 32 8.7 13.9 0.00 0.00 0.00 79 1011.9
20260506043014 50 61 9.6 16.5 0.00 0.00 0.00 79 1011.9
20260506041520 50 22 9.6 16.5 0.00 0.00 0.00 79 1011.5
20260506040032 50 27 11.3 15.6 0.00 0.00 0.00 79 1011.8
20260506034508 50 34 11.3 18.2 0.00 0.00 0.00 79 1012.0
20260506033014 50 47 13.0 18.2 0.00 0.00 0.00 78 1011.5
20260506031520 51 23 9.6 17.4 0.00 0.00 0.00 78 1011.6
20260506030023 51 38 8.7 19.1 0.00 0.00 0.00 77 1011.1
20260506024524 51 31 11.3 18.2 0.00 0.00 0.00 76 1011.1
20260506023010 52 23 11.3 18.2 0.00 0.00 0.00 76 1011.1
20260506021531 52 24 10.4 16.5 0.00 0.00 0.00 76 1010.8
20260506020025 52 14 12.2 18.2 0.00 0.00 0.00 75 1010.6
20260506014525 52 18 15.6 22.6 0.00 0.00 0.00 74 1010.3
20260506013031 53 23 11.3 20.0 0.00 0.00 0.00 74 1010.0
20260506011514 53 359 12.2 18.2 0.00 0.00 0.00 73 1009.4
20260506010020 54 27 14.8 21.7 0.00 0.00 0.00 73 1009.1
20260506004527 54 6 10.4 16.5 0.00 0.00 0.00 73 1008.9
20260506003026 54 32 12.2 18.2 0.00 0.00 0.00 72 1009.2
20260506001509 54 29 13.0 18.2 0.00 0.00 0.00 72 1009.2
20260506000014 54 356 11.3 16.5 0.00 0.00 0.00 73 1009.2
20260505234503 54 29 12.2 17.4 0.00 0.00 0.00 73 1009.0
20260505233004 54 4 11.3 19.1 0.00 0.00 0.00 75 1009.0
20260505231512 55 20 11.3 20.0 0.00 0.00 0.00 76 1009.1
20260505230021 55 358 13.9 18.2 0.00 0.00 0.00 75 1008.9
20260505224517 56 342 11.3 16.5 0.00 0.00 0.00 74 1009.1
20260505223005 56 328 9.6 16.5 0.00 0.00 0.00 74 1008.9
20260505221504 56 346 11.3 17.4 0.00 0.00 0.00 75 1009.1
20260505220009 57 31 13.0 17.4 0.00 0.00 0.00 75 1008.9
20260505214517 57 13 12.2 17.4 0.00 0.00 0.00 75 1008.5
20260505213028 57 16 12.2 20.0 0.00 0.00 0.00 75 1008.8
20260505211509 58 352 12.2 15.6 0.00 0.00 0.00 74 1008.0
20260505210013 59 335 9.6 15.6 0.00 0.00 0.00 73 1008.2
20260505204514 59 343 11.3 16.5 0.00 0.00 0.00 72 1007.9
20260505203024 61 359 10.4 19.1 0.00 0.00 0.00 71 1008.0
20260505201530 61 356 12.2 19.1 0.00 0.00 0.00 70 1007.8
20260505200010 62 23 11.3 17.4 0.00 0.00 0.00 69 1007.6
20260505194509 62 356 11.3 17.4 0.00 0.00 0.00 70 1007.5
20260505193015 63 13 13.0 20.0 0.00 0.00 0.00 69 1007.6
20260505191519 62 336 11.3 21.7 0.00 0.00 0.00 72 1007.0
20260505190025 62 327 13.9 21.7 0.00 0.00 0.00 72 1006.9
20260505184508 63 20 14.8 21.7 0.00 0.00 0.00 70 1007.1
20260505183018 64 336 13.0 17.4 0.00 0.00 0.00 69 1007.0
20260505181520 63 18 13.0 19.1 0.00 0.00 0.00 71 1006.5
20260505180021 64 6 14.8 21.7 0.00 0.00 0.00 71 1007.1
20260505174529 65 309 15.6 20.0 0.00 0.00 0.00 71 1006.7
20260505173029 65 338 14.8 20.9 0.00 0.00 0.00 71 1005.9
20260505171515 66 1 13.0 17.4 0.00 0.00 0.00 72 1005.1
20260505170020 65 360 13.0 20.9 0.00 0.00 0.00 73 1005.2
20260505164523 66 13 12.2 22.6 0.00 0.00 0.00 72 1004.8
20260505163032 67 345 15.6 24.3 0.00 0.00 0.00 72 1004.4
20260505161525 68 315 13.0 24.3 0.00 0.00 0.00 72 1004.2
20260505153024 73 323 10.4 17.4 0.00 0.00 0.00 52 1003.3
20260505151531 74 283 11.3 17.4 0.00 0.00 0.00 59 1002.7